Skip Page Navigation
NASA JPL Caltech
NASA Logo - Jet Propulsion Laboratory + View the NASA Portal
+ Center for Near-Earth Object Studies
JPL Home Earth Solar System Stars & Galaxies Technology
JPL Solar System Dynamics
BODIES ORBITS EPHEMERIDES TOOLS PHYSICAL DATA DISCOVERY FAQ SITE MAP
IMPORTANT: The SSD Announcement email list is now available. Major changes are coming in the near future, including possible hostname and/or URL changes. To be notified of such changes, subscribe to this email list.

Please visit this page for more details.


JPL Small-Body Database Browser
Search: [ help ]  
487183 (2014 OH334)
Classification: Main-belt Asteroid          SPK-ID: 2487183
Ephemeris | Orbit Diagram | Orbital Elements | Mission Design | Physical Parameters | Discovery Circumstances | Close-Approach Data ]

[ show orbit diagram ]
Orbital Elements at Epoch 2459000.5 (2020-May-31.0) TDB
Reference: JPL 17 (heliocentric ecliptic J2000)
 Element Value Uncertainty (1-sigma)   Units 
e .0826897478597021 1.058e-07  
a 3.170093034823132 1.2847e-07 au
q 2.90795884108181 3.2613e-07 au
i 10.49241627080296 9.9268e-06 deg
node 260.9193855968781 6.325e-05 deg
peri 34.51844446365141 8.8778e-05 deg
M 35.80267453874308 7.1345e-05 deg
tp 2458795.469057255014
(2019-Nov-07.96905725)
0.0004021 TDB
period 2061.609651768385
5.64
0.00012532
3.431e-07
d
yr
n .1746208355646778 1.0615e-08 deg/d
Q 3.432227228564456 1.3909e-07 au
  Orbit Determination Parameters
   # obs. used (total)      75  
   data-arc span      5348 days (14.64 yr)  
   first obs. used      2003-08-25  
   last obs. used      2018-04-16  
   planetary ephem.      DE431  
   SB-pert. ephem.      SB431-N16  
   condition code      0  
   norm. resid. RMS      .58377  
   source      ORB  
   producer      Otto Matic  
   solution date      2019-Jul-14 16:05:40  

Additional Information
 Earth MOID = 1.89875 au 
 Jupiter MOID = 1.72203 au 
 T_jup = 3.171 
[ show covariance matrix ]

Ephemeris | Orbit Diagram | Orbital Elements | Mission Design | Physical Parameters | Discovery Circumstances | Close-Approach Data ]

Physical Parameter Table
Parameter Symbol Value Units Sigma Reference Notes
absolute magnitude H 15.8   n/a MPO440944  

487183 (2014 OH334)          Discovered 2013-Apr-16 by Pan-STARRS 1 at Haleakala
Reference: Last Updated: 2017-03-14

[ show close-approach data ]
Ephemeris | Orbit Diagram | Orbital Elements | Mission Design | Physical Parameters | Discovery Circumstances | Close-Approach Data ]
ABOUT SSD CREDITS/AWARDS PRIVACY/COPYRIGHT GLOSSARY LINKS
FirstGov 2020-May-26 21:50 UT
(server date/time)  
NASA Home Page
Site Manager:   Ryan S. Park
Webmaster  Alan B. Chamberlin